Location: Snead
(33.5657°N, 82.1207°W)
Time: 02:38:20
(UTC+00:00)

ACS3 Solar Sail - Visible Passes

Search period start: 18 July 2024 00:00
Search period end: 28 July 2024 00:00
Orbit: 993 x 1023 km, 97.4° (Epoch: 17 July)

Date Brightness Start Highest point End Pass type
(mag) Time Alt. Az. Time Alt. Az. Time Alt. Az.
18 Jul 6.5 01:14:45 10° E 01:18:14 16° ENE 01:21:44 10° NNE visible
18 Jul 5.0 02:59:09 38° S 03:01:38 69° W 03:07:51 10° NNW visible
19 Jul 5.7 01:48:38 18° ESE 01:52:13 31° ENE 01:57:35 10° N visible
19 Jul 6.0 03:33:59 27° SW 03:36:10 34° W 03:41:45 10° NNW visible
20 Jul 4.9 02:23:27 32° SE 02:26:24 62° ENE 02:32:32 10° N visible
20 Jul 6.9 04:08:48 14° WSW 04:10:53 16° W 04:14:35 10° NW visible
21 Jul 6.5 01:13:42 10° E 01:17:21 16° ENE 01:20:59 10° NNE visible
21 Jul 5.0 02:58:17 37° S 03:00:46 67° W 03:06:59 10° NNW visible
22 Jul 5.7 01:47:46 19° ESE 01:51:20 32° ENE 01:56:45 10° N visible
22 Jul 6.1 03:33:06 26° SW 03:35:18 33° W 03:40:50 10° NNW visible
23 Jul 4.9 02:22:36 32° SE 02:25:31 65° ENE 02:31:42 10° N visible
23 Jul 6.9 04:07:57 13° WSW 04:10:02 15° W 04:13:34 10° NW visible
24 Jul 6.4 01:12:41 10° ESE 01:16:27 17° ENE 01:20:13 10° NNE visible
24 Jul 5.1 02:57:26 37° SSW 02:59:54 65° W 03:06:06 10° NNW visible
25 Jul 5.6 01:46:55 19° ESE 01:50:27 33° ENE 01:55:56 10° N visible
25 Jul 6.2 03:32:16 25° SW 03:34:27 32° W 03:39:56 10° NNW visible
26 Jul 4.8 02:21:45 33° SSE 02:24:39 67° ENE 02:30:51 10° N visible
26 Jul 7.0 04:07:05 13° WSW 04:09:11 15° W 04:12:34 10° WNW visible
27 Jul 6.4 01:11:39 10° ESE 01:15:33 18° ENE 01:19:28 10° NNE visible
27 Jul 5.1 02:56:35 37° SSW 02:59:01 62° W 03:05:14 10° NNW visible
